Torna al catalogo

FLOCK 4G 28

AttivoScienzaSSO
NORAD 62634·PAYLOAD·🇺🇸 United States

Lanciato Jan 14, 2025 da Vandenberg Space Force Base

Loading…

Prossimi Passaggi (prossime 24 ore)

TLE

AggiornatoSource: CelesTrak SupGP

Epoca: Sep 11, 2026, 04:44 UTC

1 62634C 25009AB  26254.19759259  .00013620  00000+0  38779-3 0  2545
2 62634  97.3995 339.1322 0002043  45.6486 259.8658 15.36148384    17

Traccia FLOCK 4G 28 in tempo reale con AllMySat

Download on the App Store